TimeMST,TemperatureF,Dew PointF,Humidity,Sea Level PressureIn,VisibilityMPH,Wind Direction,Wind SpeedMPH,Gust SpeedMPH,PrecipitationIn,Events,Conditions,WindDirDegrees,DateUTC
12:02 AM,26.6,24.8,93,30.10,10.0,Calm,Calm,-,N/A,,Overcast,0,2013-01-06 07:02:00
12:55 AM,26.1,23.0,88,30.19,10.0,Calm,Calm,-,N/A,,Overcast,0,2013-01-06 07:55:00
1:55 AM,27.0,24.1,89,30.17,10.0,Calm,Calm,-,N/A,,Overcast,0,2013-01-06 08:55:00
2:55 AM,27.0,24.1,89,30.17,9.0,Calm,Calm,-,N/A,,Overcast,0,2013-01-06 09:55:00
3:55 AM,27.0,24.1,89,30.15,2.5,Calm,Calm,-,0.00,Snow,Light Snow,0,2013-01-06 10:55:00
4:10 AM,26.6,24.8,93,30.05,4.0,Calm,Calm,-,0.01,Snow,Light Snow,0,2013-01-06 11:10:00
4:55 AM,26.6,24.8,93,30.04,10.0,West,3.5,-,N/A,,Overcast,280,2013-01-06 11:55:00
5:22 AM,26.6,26.6,100,30.04,2.5,SSW,3.5,-,0.00,Snow,Light Snow,210,2013-01-06 12:22:00
5:30 AM,28.4,26.6,93,30.03,5.0,South,3.5,-,0.00,Snow,Light Snow,190,2013-01-06 12:30:00
5:55 AM,28.0,25.0,88,30.12,7.0,South,4.6,-,0.00,Snow,Light Snow,180,2013-01-06 12:55:00
6:50 AM,28.4,26.6,93,30.01,7.0,SSE,5.8,-,0.00,Snow,Light Snow,160,2013-01-06 13:50:00
6:55 AM,28.0,26.1,92,30.11,9.0,SSE,5.8,-,0.00,,Overcast,160,2013-01-06 13:55:00
7:55 AM,28.0,26.1,92,30.09,9.0,SSW,4.6,-,N/A,,Overcast,210,2013-01-06 14:55:00
8:03 AM,28.4,26.6,93,29.99,10.0,SSW,5.8,-,N/A,,Overcast,200,2013-01-06 15:03:00
8:55 AM,28.9,26.1,89,30.09,10.0,South,5.8,-,0.00,,Overcast,170,2013-01-06 15:55:00
9:55 AM,30.0,27.0,88,30.10,9.0,South,10.4,-,0.00,Snow,Light Snow,170,2013-01-06 16:55:00
10:55 AM,30.0,26.1,85,30.11,10.0,WSW,5.8,-,0.00,,Overcast,240,2013-01-06 17:55:00
11:55 AM,30.9,27.0,85,30.08,8.0,South,8.1,-,0.00,Snow,Light Snow,190,2013-01-06 18:55:00
12:55 PM,32.0,28.9,88,30.06,10.0,SSE,11.5,-,0.00,,Overcast,160,2013-01-06 19:55:00
1:55 PM,33.1,28.0,82,30.04,10.0,SE,8.1,-,N/A,,Overcast,140,2013-01-06 20:55:00
2:55 PM,34.0,27.0,75,30.03,10.0,SE,9.2,-,N/A,,Overcast,140,2013-01-06 21:55:00
3:55 PM,35.1,24.1,64,30.05,10.0,SSW,9.2,-,N/A,,Overcast,210,2013-01-06 22:55:00
4:55 PM,35.1,21.9,59,30.05,10.0,SW,9.2,-,N/A,,Overcast,230,2013-01-06 23:55:00
5:55 PM,30.9,21.0,67,30.06,10.0,SSW,5.8,-,N/A,,Mostly Cloudy,210,2013-01-07 00:55:00
6:55 PM,33.1,23.0,66,30.06,10.0,South,9.2,-,N/A,,Overcast,190,2013-01-07 01:55:00
7:55 PM,32.0,23.0,69,29.97,10.0,SSE,6.9,-,N/A,,Overcast,160,2013-01-07 02:55:00
8:55 PM,33.1,23.0,66,30.05,10.0,South,5.8,-,N/A,,Overcast,190,2013-01-07 03:55:00
9:55 PM,32.0,24.1,73,30.06,10.0,SSE,6.9,-,N/A,,Overcast,150,2013-01-07 04:55:00
10:55 PM,33.1,24.1,70,30.06,10.0,South,5.8,-,N/A,,Overcast,190,2013-01-07 05:55:00
11:55 PM,33.1,25.0,72,30.05,10.0,South,8.1,-,N/A,,Overcast,190,2013-01-07 06:55:00